| time (UTC) | temp F | wind direction | speed MPH | gust MPH | rain 1hr in | rain 24hr in | rain mn in | humidity % | barometer mb |
| 20260903184041 | 101 | 52 | 0.0 | 0.0 | 0.00 | 0.00 | 0.00 | 46 | 1017.0 |
| 20260903183540 | 100 | 204 | 0.0 | 0.0 | 0.00 | 0.00 | 0.00 | 47 | 1017.0 |
| 20260903183035 | 100 | 62 | 0.0 | 0.0 | 0.00 | 0.00 | 0.00 | 48 | 1017.0 |
| 20260903182533 | 100 | 159 | 0.0 | 0.0 | 0.00 | 0.00 | 0.00 | 48 | 1016.9 |
| 20260903182030 | 101 | 226 | 0.0 | 0.0 | 0.00 | 0.00 | 0.00 | 47 | 1017.2 |
| 20260903181528 | 100 | 217 | 0.0 | 0.0 | 0.00 | 0.00 | 0.00 | 49 | 1017.2 |
| 20260903181023 | 101 | 233 | 0.0 | 0.0 | 0.00 | 0.00 | 0.00 | 48 | 1017.2 |
| 20260903180519 | 99 | 26 | 0.0 | 0.0 | 0.00 | 0.00 | 0.00 | 49 | 1017.5 |
| 20260903180018 | 99 | 133 | 0.0 | 0.0 | 0.00 | 0.00 | 0.00 | 50 | 1017.4 |
| 20260903175517 | 100 | 166 | 0.0 | 0.0 | 0.00 | 0.00 | 0.00 | 49 | 1017.4 |
| 20260903175016 | 98 | 214 | 0.0 | 0.0 | 0.00 | 0.00 | 0.00 | 53 | 1017.5 |
| 20260903174511 | 96 | 166 | 0.0 | 0.0 | 0.00 | 0.00 | 0.00 | 54 | 1017.4 |
| 20260903174012 | 97 | 114 | 0.0 | 0.0 | 0.00 | 0.00 | 0.00 | 53 | 1017.5 |
| 20260903173506 | 99 | 128 | 0.0 | 0.0 | 0.00 | 0.00 | 0.00 | 51 | 1017.6 |
| 20260903173003 | 100 | 160 | 0.0 | 0.0 | 0.00 | 0.00 | 0.00 | 49 | 1017.8 |
| 20260903172457 | 99 | 207 | 0.0 | 0.0 | 0.00 | 0.00 | 0.00 | 51 | 1017.7 |
| 20260903171953 | 99 | 238 | 0.0 | 0.0 | 0.00 | 0.00 | 0.00 | 51 | 1017.8 |
| 20260903171447 | 98 | 174 | 0.0 | 0.0 | 0.00 | 0.00 | 0.00 | 52 | 1018.1 |
| 20260903170942 | 98 | 256 | 0.0 | 0.0 | 0.00 | 0.00 | 0.00 | 52 | 1017.7 |
| 20260903170437 | 97 | 0 | 0.0 | 0.0 | 0.00 | 0.00 | 0.00 | 53 | 1017.9 |
| 20260903165936 | 99 | 216 | 0.0 | 0.0 | 0.00 | 0.00 | 0.00 | 52 | 1018.0 |
| 20260903165430 | 99 | 1 | 0.0 | 0.0 | 0.00 | 0.00 | 0.00 | 52 | 1018.1 |
| 20260903164931 | 99 | 293 | 0.0 | 0.0 | 0.00 | 0.00 | 0.00 | 52 | 1018.2 |
| 20260903164426 | 98 | 355 | 0.0 | 0.0 | 0.00 | 0.00 | 0.00 | 51 | 1018.2 |
| 20260903163925 | 100 | 222 | 0.0 | 0.0 | 0.00 | 0.00 | 0.00 | 51 | 1018.0 |
| 20260903163421 | 99 | 225 | 0.0 | 0.0 | 0.00 | 0.00 | 0.00 | 52 | 1018.1 |
| 20260903162917 | 98 | 13 | 0.0 | 0.0 | 0.00 | 0.00 | 0.00 | 52 | 1018.5 |
| 20260903162414 | 98 | 212 | 0.0 | 0.0 | 0.00 | 0.00 | 0.00 | 52 | 1018.3 |
| 20260903161909 | 98 | 214 | 0.0 | 0.0 | 0.00 | 0.00 | 0.00 | 54 | 1018.5 |
| 20260903161404 | 96 | 179 | 0.0 | 0.0 | 0.00 | 0.00 | 0.00 | 54 | 1018.4 |
| 20260903160900 | 98 | 217 | 0.0 | 0.0 | 0.00 | 0.00 | 0.00 | 53 | 1018.6 |
| 20260903160359 | 97 | 29 | 0.0 | 0.0 | 0.00 | 0.00 | 0.00 | 54 | 1018.7 |
| 20260903155857 | 96 | 144 | 0.0 | 0.0 | 0.00 | 0.00 | 0.00 | 54 | 1018.8 |
| 20260903155353 | 95 | 168 | 0.0 | 0.0 | 0.00 | 0.00 | 0.00 | 57 | 1018.8 |
| 20260903154848 | 94 | 249 | 0.0 | 0.0 | 0.00 | 0.00 | 0.00 | 58 | 1018.8 |
| 20260903154345 | 94 | 240 | 0.0 | 0.0 | 0.00 | 0.00 | 0.00 | 58 | 1018.7 |
| 20260903153839 | 93 | 229 | 0.0 | 0.0 | 0.00 | 0.00 | 0.00 | 60 | 1019.1 |
| 20260903153335 | 94 | 328 | 0.0 | 0.0 | 0.00 | 0.00 | 0.00 | 61 | 1019.0 |
| 20260903152832 | 93 | 158 | 0.0 | 0.0 | 0.00 | 0.00 | 0.00 | 60 | 1019.1 |
| 20260903152327 | 92 | 80 | 0.0 | 0.0 | 0.00 | 0.00 | 0.00 | 62 | 1019.0 |
| 20260903151822 | 93 | 236 | 0.0 | 0.0 | 0.00 | 0.00 | 0.00 | 63 | 1018.9 |
| 20260903151318 | 93 | 181 | 0.0 | 0.0 | 0.00 | 0.00 | 0.00 | 60 | 1018.8 |
| 20260903150817 | 91 | 210 | 0.0 | 0.0 | 0.00 | 0.00 | 0.00 | 63 | 1019.0 |
| 20260903150318 | 92 | 192 | 0.0 | 0.0 | 0.00 | 0.00 | 0.00 | 65 | 1019.2 |
| 20260903145812 | 91 | 190 | 0.0 | 0.0 | 0.00 | 0.00 | 0.00 | 61 | 1019.0 |
| 20260903145307 | 92 | 243 | 0.0 | 0.0 | 0.00 | 0.00 | 0.00 | 62 | 1019.2 |
| 20260903144807 | 92 | 279 | 0.0 | 0.0 | 0.00 | 0.00 | 0.00 | 62 | 1018.9 |
| 20260903144302 | 92 | 185 | 0.0 | 0.0 | 0.00 | 0.00 | 0.00 | 62 | 1018.9 |
| 20260903143758 | 90 | 195 | 0.0 | 0.0 | 0.00 | 0.00 | 0.00 | 64 | 1019.0 |
| 20260903143254 | 89 | 212 | 0.0 | 0.0 | 0.00 | 0.00 | 0.00 | 66 | 1018.9 |
| 20260903142749 | 89 | 234 | 0.0 | 0.0 | 0.00 | 0.00 | 0.00 | 67 | 1019.0 |
| 20260903142245 | 89 | 219 | 0.0 | 0.0 | 0.00 | 0.00 | 0.00 | 65 | 1019.0 |
| 20260903141741 | 89 | 241 | 0.0 | 0.0 | 0.00 | 0.00 | 0.00 | 66 | 1019.1 |
| 20260903141236 | 88 | 276 | 0.0 | 0.0 | 0.00 | 0.00 | 0.00 | 65 | 1019.0 |
| 20260903140731 | 88 | 245 | 0.0 | 0.0 | 0.00 | 0.00 | 0.00 | 74 | 1018.8 |
| 20260903140226 | 88 | 245 | 0.0 | 0.0 | 0.00 | 0.00 | 0.00 | 72 | 1018.9 |
| 20260903135722 | 88 | 248 | 0.0 | 0.0 | 0.00 | 0.00 | 0.00 | 73 | 1018.9 |
| 20260903135217 | 87 | 179 | 0.0 | 0.0 | 0.00 | 0.00 | 0.00 | 74 | 1019.1 |
| 20260903134716 | 86 | 259 | 0.0 | 0.0 | 0.00 | 0.00 | 0.00 | 75 | 1019.1 |
| 20260903134212 | 84 | 234 | 0.0 | 0.0 | 0.00 | 0.00 | 0.00 | 78 | 1019.0 |
| 20260903133710 | 84 | 235 | 0.0 | 0.0 | 0.00 | 0.00 | 0.00 | 81 | 1019.2 |
| 20260903133206 | 85 | 234 | 0.0 | 0.0 | 0.00 | 0.00 | 0.00 | 80 | 1019.1 |
| 20260903132706 | 84 | 235 | 0.0 | 0.0 | 0.00 | 0.00 | 0.00 | 80 | 1019.2 |
| 20260903132200 | 83 | 236 | 0.0 | 0.0 | 0.00 | 0.00 | 0.00 | 80 | 1019.2 |
| 20260903131655 | 83 | 178 | 0.0 | 0.0 | 0.00 | 0.00 | 0.00 | 84 | 1019.2 |
| 20260903131154 | 82 | 178 | 0.0 | 0.0 | 0.00 | 0.00 | 0.00 | 87 | 1019.2 |
| 20260903130650 | 80 | 178 | 0.0 | 0.0 | 0.00 | 0.00 | 0.00 | 89 | 1019.5 |
| 20260903130144 | 80 | 178 | 0.0 | 0.0 | 0.00 | 0.00 | 0.00 | 90 | 1019.3 |
| 20260903125642 | 79 | 178 | 0.0 | 0.0 | 0.00 | 0.00 | 0.00 | 90 | 1019.6 |
| 20260903125137 | 78 | 177 | 0.0 | 0.0 | 0.00 | 0.00 | 0.00 | 92 | 1019.4 |
| 20260903124632 | 78 | 177 | 0.0 | 0.0 | 0.00 | 0.00 | 0.00 | 92 | 1019.5 |
| 20260903124131 | 77 | 177 | 0.0 | 0.0 | 0.00 | 0.00 | 0.00 | 94 | 1019.3 |
| 20260903123626 | 77 | 177 | 0.0 | 0.0 | 0.00 | 0.00 | 0.00 | 95 | 1019.4 |
| 20260903123125 | 76 | 177 | 0.0 | 0.0 | 0.00 | 0.00 | 0.00 | 96 | 1019.5 |
| 20260903122625 | 75 | 177 | 0.0 | 0.0 | 0.00 | 0.00 | 0.00 | 97 | 1019.5 |
| 20260903122125 | 74 | 177 | 0.0 | 0.0 | 0.00 | 0.00 | 0.00 | 98 | 1019.7 |
| 20260903121624 | 74 | 177 | 0.0 | 0.0 | 0.00 | 0.00 | 0.00 | 99 | 1019.4 |
| 20260903121120 | 73 | 177 | 0.0 | 0.0 | 0.00 | 0.00 | 0.00 | 99 | 1019.5 |
| 20260903120618 | 73 | 177 | 0.0 | 0.0 | 0.00 | 0.00 | 0.00 | 99 | 1019.5 |
| 20260903120113 | 73 | 177 | 0.0 | 0.0 | 0.00 | 0.00 | 0.00 | 99 | 1019.5 |
| 20260903115611 | 73 | 177 | 0.0 | 0.0 | 0.00 | 0.00 | 0.00 | 99 | 1019.2 |
| 20260903115107 | 73 | 177 | 0.0 | 0.0 | 0.00 | 0.00 | 0.00 | 99 | 1019.3 |
| 20260903114602 | 72 | 177 | 0.0 | 0.0 | 0.00 | 0.00 | 0.00 | 99 | 1019.4 |
| 20260903114058 | 72 | 177 | 0.0 | 0.0 | 0.00 | 0.00 | 0.00 | 99 | 1019.2 |
| 20260903113553 | 72 | 177 | 0.0 | 0.0 | 0.00 | 0.00 | 0.00 | 99 | 1019.3 |
| 20260903113049 | 72 | 177 | 0.0 | 0.0 | 0.00 | 0.00 | 0.00 | 99 | 1019.2 |
| 20260903112545 | 71 | 177 | 0.0 | 0.0 | 0.00 | 0.00 | 0.00 | 99 | 1019.2 |
| 20260903112044 | 71 | 177 | 0.0 | 0.0 | 0.00 | 0.00 | 0.00 | 99 | 1019.2 |
| 20260903111543 | 71 | 177 | 0.0 | 0.0 | 0.00 | 0.00 | 0.00 | 99 | 1019.1 |
| 20260903111039 | 72 | 177 | 0.0 | 0.0 | 0.00 | 0.00 | 0.00 | 99 | 1019.1 |
| 20260903110536 | 72 | 177 | 0.0 | 0.0 | 0.00 | 0.00 | 0.00 | 99 | 1018.8 |
| 20260903110030 | 72 | 177 | 0.0 | 0.0 | 0.00 | 0.00 | 0.00 | 99 | 1018.8 |
| 20260903105525 | 71 | 177 | 0.0 | 0.0 | 0.00 | 0.00 | 0.00 | 99 | 1018.8 |
| 20260903105020 | 72 | 177 | 0.0 | 0.0 | 0.00 | 0.00 | 0.00 | 99 | 1019.0 |
| 20260903104520 | 72 | 177 | 0.0 | 0.0 | 0.00 | 0.00 | 0.00 | 99 | 1018.7 |
| 20260903104016 | 72 | 177 | 0.0 | 0.0 | 0.00 | 0.00 | 0.00 | 99 | 1018.6 |
| 20260903103511 | 72 | 177 | 0.0 | 0.0 | 0.00 | 0.00 | 0.00 | 99 | 1018.5 |
| 20260903103008 | 72 | 177 | 0.0 | 0.0 | 0.00 | 0.00 | 0.00 | 99 | 1018.5 |
| 20260903102503 | 72 | 177 | 0.0 | 0.0 | 0.00 | 0.00 | 0.00 | 99 | 1018.5 |
| 20260903102001 | 72 | 177 | 0.0 | 0.0 | 0.00 | 0.00 | 0.00 | 99 | 1018.5 |
| 20260903101456 | 72 | 177 | 0.0 | 0.0 | 0.00 | 0.00 | 0.00 | 99 | 1018.4 |
| 20260903100952 | 72 | 177 | 0.0 | 0.0 | 0.00 | 0.00 | 0.00 | 99 | 1018.5 |
| 20260903100446 | 72 | 176 | 0.0 | 0.0 | 0.00 | 0.00 | 0.00 | 99 | 1018.3 |
| 20260903095944 | 72 | 177 | 0.0 | 0.0 | 0.00 | 0.00 | 0.00 | 99 | 1018.2 |
| 20260903095438 | 72 | 176 | 0.0 | 0.0 | 0.00 | 0.00 | 0.00 | 99 | 1018.3 |
| 20260903094934 | 72 | 176 | 0.0 | 0.0 | 0.00 | 0.00 | 0.00 | 99 | 1018.1 |
| 20260903094433 | 72 | 176 | 0.0 | 0.0 | 0.00 | 0.00 | 0.00 | 99 | 1018.3 |
| 20260903093929 | 73 | 176 | 0.0 | 0.0 | 0.00 | 0.00 | 0.00 | 99 | 1018.1 |
| 20260903093424 | 73 | 176 | 0.0 | 0.0 | 0.00 | 0.00 | 0.00 | 99 | 1018.2 |
| 20260903092920 | 73 | 176 | 0.0 | 0.0 | 0.00 | 0.00 | 0.00 | 99 | 1018.2 |
| 20260903092419 | 73 | 178 | 0.0 | 0.0 | 0.00 | 0.00 | 0.00 | 99 | 1018.2 |
| 20260903091918 | 73 | 178 | 0.0 | 0.0 | 0.00 | 0.00 | 0.00 | 99 | 1018.1 |
| 20260903091417 | 73 | 178 | 0.0 | 0.0 | 0.00 | 0.00 | 0.00 | 99 | 1018.2 |
| 20260903090912 | 73 | 178 | 0.0 | 0.0 | 0.00 | 0.00 | 0.00 | 99 | 1018.0 |
| 20260903090408 | 73 | 178 | 0.0 | 0.0 | 0.00 | 0.00 | 0.00 | 98 | 1018.2 |
| 20260903085906 | 73 | 178 | 0.0 | 0.0 | 0.00 | 0.00 | 0.00 | 98 | 1018.1 |
| 20260903085405 | 73 | 179 | 0.0 | 0.0 | 0.00 | 0.00 | 0.00 | 98 | 1018.2 |
| 20260903084905 | 73 | 179 | 0.0 | 0.0 | 0.00 | 0.00 | 0.00 | 98 | 1018.3 |
| 20260903084403 | 73 | 179 | 0.0 | 0.0 | 0.00 | 0.00 | 0.00 | 98 | 1018.1 |
| 20260903083859 | 73 | 178 | 0.0 | 0.0 | 0.00 | 0.00 | 0.00 | 98 | 1017.9 |
| 20260903083354 | 73 | 178 | 0.0 | 0.0 | 0.00 | 0.00 | 0.00 | 98 | 1018.1 |
| 20260903082853 | 73 | 178 | 0.0 | 0.0 | 0.00 | 0.00 | 0.00 | 98 | 1017.9 |
| 20260903082348 | 73 | 178 | 0.0 | 0.0 | 0.00 | 0.00 | 0.00 | 98 | 1017.7 |
| 20260903081844 | 73 | 178 | 0.0 | 0.0 | 0.00 | 0.00 | 0.00 | 98 | 1017.8 |
| 20260903081339 | 73 | 183 | 0.0 | 0.0 | 0.00 | 0.00 | 0.00 | 98 | 1017.9 |
| 20260903080835 | 74 | 184 | 0.0 | 0.0 | 0.00 | 0.00 | 0.00 | 98 | 1017.9 |
| 20260903080332 | 74 | 184 | 0.0 | 0.0 | 0.00 | 0.00 | 0.00 | 97 | 1017.9 |
| 20260903075831 | 74 | 183 | 0.0 | 0.0 | 0.00 | 0.00 | 0.00 | 97 | 1017.8 |
| 20260903075327 | 74 | 184 | 0.0 | 0.0 | 0.00 | 0.00 | 0.00 | 97 | 1017.9 |
| 20260903074826 | 74 | 183 | 0.0 | 0.0 | 0.00 | 0.00 | 0.00 | 97 | 1017.5 |
| 20260903074321 | 74 | 183 | 0.0 | 0.0 | 0.00 | 0.00 | 0.00 | 97 | 1017.8 |
| 20260903073817 | 74 | 183 | 0.0 | 0.0 | 0.00 | 0.00 | 0.00 | 97 | 1017.8 |
| 20260903073312 | 74 | 183 | 0.0 | 0.0 | 0.00 | 0.00 | 0.00 | 97 | 1017.7 |
| 20260903072808 | 74 | 183 | 0.0 | 0.0 | 0.00 | 0.00 | 0.00 | 97 | 1017.7 |
| 20260903072306 | 74 | 183 | 0.0 | 0.0 | 0.00 | 0.00 | 0.00 | 97 | 1017.8 |
| 20260903071800 | 75 | 183 | 0.0 | 0.0 | 0.00 | 0.00 | 0.00 | 97 | 1017.8 |
| 20260903071256 | 75 | 187 | 0.0 | 0.0 | 0.00 | 0.00 | 0.00 | 96 | 1017.7 |
| 20260903070750 | 75 | 187 | 0.0 | 0.0 | 0.00 | 0.00 | 0.00 | 96 | 1017.6 |
| 20260903070246 | 75 | 187 | 0.0 | 0.0 | 0.00 | 0.00 | 0.00 | 96 | 1017.6 |
| 20260903065741 | 75 | 187 | 0.0 | 0.0 | 0.00 | 0.00 | 0.00 | 96 | 1017.6 |
| 20260903065240 | 75 | 187 | 0.0 | 0.0 | 0.00 | 0.00 | 0.00 | 96 | 1017.7 |
| 20260903064738 | 75 | 187 | 0.0 | 0.0 | 0.00 | 0.00 | 0.00 | 96 | 1017.6 |
| 20260903064234 | 75 | 193 | 0.0 | 0.0 | 0.00 | 0.00 | 0.00 | 96 | 1017.9 |
| 20260903063731 | 75 | 193 | 0.0 | 0.0 | 0.00 | 0.00 | 0.00 | 95 | 1017.6 |
| 20260903063225 | 76 | 193 | 0.0 | 0.0 | 0.00 | 0.00 | 0.00 | 95 | 1017.9 |
| 20260903062721 | 76 | 193 | 0.0 | 0.0 | 0.00 | 0.00 | 0.00 | 95 | 1018.0 |
| 20260903062221 | 76 | 193 | 0.0 | 0.0 | 0.00 | 0.00 | 0.00 | 94 | 1018.0 |
| 20260903061718 | 76 | 193 | 0.0 | 0.0 | 0.00 | 0.00 | 0.00 | 94 | 1018.0 |
| 20260903061215 | 76 | 192 | 0.0 | 0.0 | 0.00 | 0.00 | 0.00 | 93 | 1018.1 |
| 20260903060712 | 77 | 198 | 0.0 | 0.0 | 0.00 | 0.00 | 0.00 | 93 | 1018.1 |
| 20260903060212 | 77 | 198 | 0.0 | 0.0 | 0.00 | 0.00 | 0.00 | 93 | 1018.2 |
| 20260903055709 | 77 | 197 | 0.0 | 0.0 | 0.00 | 0.00 | 0.00 | 93 | 1018.1 |
| 20260903055208 | 77 | 195 | 0.0 | 0.0 | 0.00 | 0.00 | 0.00 | 93 | 1018.1 |
| 20260903054703 | 77 | 204 | 0.0 | 0.0 | 0.00 | 0.00 | 0.00 | 92 | 1018.2 |
| 20260903054158 | 77 | 197 | 0.0 | 0.0 | 0.00 | 0.00 | 0.00 | 92 | 1018.3 |
| 20260903053655 | 77 | 188 | 0.0 | 0.0 | 0.00 | 0.00 | 0.00 | 92 | 1018.2 |
| 20260903053149 | 78 | 195 | 0.0 | 0.0 | 0.00 | 0.00 | 0.00 | 92 | 1018.3 |
| 20260903052645 | 78 | 178 | 0.0 | 0.0 | 0.00 | 0.00 | 0.00 | 92 | 1018.3 |
| 20260903052141 | 78 | 178 | 0.0 | 0.0 | 0.00 | 0.00 | 0.00 | 92 | 1018.2 |
| 20260903051636 | 78 | 180 | 0.0 | 0.0 | 0.00 | 0.00 | 0.00 | 91 | 1018.3 |
| 20260903051132 | 78 | 182 | 0.0 | 0.0 | 0.00 | 0.00 | 0.00 | 91 | 1018.4 |
| 20260903050632 | 78 | 192 | 0.0 | 0.0 | 0.00 | 0.00 | 0.00 | 91 | 1018.5 |
| 20260903050126 | 78 | 181 | 0.0 | 0.0 | 0.00 | 0.00 | 0.00 | 91 | 1018.5 |
| 20260903045625 | 78 | 184 | 0.0 | 0.0 | 0.00 | 0.00 | 0.00 | 91 | 1018.2 |
| 20260903045123 | 78 | 186 | 0.0 | 0.0 | 0.00 | 0.00 | 0.00 | 91 | 1018.5 |
| 20260903044618 | 78 | 189 | 0.0 | 0.0 | 0.00 | 0.00 | 0.00 | 91 | 1018.2 |
| 20260903044114 | 78 | 188 | 0.0 | 0.0 | 0.00 | 0.00 | 0.00 | 91 | 1018.2 |
| 20260903043610 | 79 | 200 | 0.0 | 0.0 | 0.00 | 0.00 | 0.00 | 91 | 1018.2 |
| 20260903043109 | 79 | 216 | 0.0 | 0.0 | 0.00 | 0.00 | 0.00 | 90 | 1018.3 |
| 20260903042603 | 79 | 216 | 0.0 | 0.0 | 0.00 | 0.00 | 0.00 | 90 | 1018.5 |
| 20260903042059 | 79 | 216 | 0.0 | 0.0 | 0.00 | 0.00 | 0.00 | 90 | 1018.2 |
| 20260903041556 | 79 | 216 | 0.0 | 0.0 | 0.00 | 0.00 | 0.00 | 90 | 1018.4 |
| 20260903041055 | 80 | 219 | 0.0 | 0.0 | 0.00 | 0.00 | 0.00 | 89 | 1018.4 |
| 20260903040554 | 80 | 186 | 0.0 | 0.0 | 0.00 | 0.00 | 0.00 | 89 | 1018.5 |
| 20260903040052 | 80 | 181 | 0.0 | 0.0 | 0.00 | 0.00 | 0.00 | 89 | 1018.5 |
| 20260903035546 | 80 | 180 | 0.0 | 0.0 | 0.00 | 0.00 | 0.00 | 88 | 1018.5 |
| 20260903035043 | 80 | 179 | 0.0 | 0.0 | 0.00 | 0.00 | 0.00 | 88 | 1018.5 |
| 20260903034537 | 80 | 191 | 0.0 | 0.0 | 0.00 | 0.00 | 0.00 | 87 | 1018.4 |
| 20260903034032 | 81 | 191 | 0.0 | 0.0 | 0.00 | 0.00 | 0.00 | 87 | 1018.7 |
| 20260903033527 | 81 | 183 | 0.0 | 0.0 | 0.00 | 0.00 | 0.00 | 86 | 1018.5 |
| 20260903033023 | 81 | 185 | 0.0 | 0.0 | 0.00 | 0.00 | 0.00 | 87 | 1018.3 |
| 20260903032518 | 81 | 179 | 0.0 | 0.0 | 0.00 | 0.00 | 0.00 | 86 | 1018.7 |
| 20260903032013 | 81 | 175 | 0.0 | 0.0 | 0.00 | 0.00 | 0.00 | 86 | 1018.5 |
| 20260903031513 | 81 | 183 | 0.0 | 0.0 | 0.00 | 0.00 | 0.00 | 86 | 1018.6 |
| 20260903031008 | 81 | 190 | 0.0 | 0.0 | 0.00 | 0.00 | 0.00 | 86 | 1018.4 |
| 20260903030503 | 81 | 189 | 0.0 | 0.0 | 0.00 | 0.00 | 0.00 | 85 | 1018.5 |
| 20260903025959 | 81 | 188 | 0.0 | 0.0 | 0.00 | 0.00 | 0.00 | 86 | 1018.6 |
| 20260903025455 | 81 | 189 | 0.0 | 0.0 | 0.00 | 0.00 | 0.00 | 85 | 1018.5 |
| 20260903024950 | 81 | 191 | 0.0 | 0.0 | 0.00 | 0.00 | 0.00 | 85 | 1018.6 |
| 20260903024449 | 81 | 187 | 0.0 | 0.0 | 0.00 | 0.00 | 0.00 | 85 | 1018.3 |
| 20260903023944 | 81 | 199 | 0.0 | 0.0 | 0.00 | 0.00 | 0.00 | 85 | 1018.5 |
| 20260903023440 | 81 | 185 | 0.0 | 0.0 | 0.00 | 0.00 | 0.00 | 85 | 1018.4 |
| 20260903022934 | 81 | 184 | 0.0 | 0.0 | 0.00 | 0.00 | 0.00 | 85 | 1018.8 |
| 20260903022428 | 81 | 177 | 0.0 | 0.0 | 0.00 | 0.00 | 0.00 | 85 | 1018.5 |
| 20260903021927 | 81 | 178 | 0.0 | 0.0 | 0.00 | 0.00 | 0.00 | 85 | 1018.3 |
| 20260903021423 | 82 | 182 | 0.0 | 0.0 | 0.00 | 0.00 | 0.00 | 85 | 1018.3 |
| 20260903020923 | 82 | 185 | 0.0 | 0.0 | 0.00 | 0.00 | 0.00 | 85 | 1018.5 |
| 20260903020418 | 82 | 173 | 0.0 | 0.0 | 0.00 | 0.00 | 0.00 | 84 | 1018.2 |
| 20260903015913 | 82 | 173 | 0.0 | 0.0 | 0.00 | 0.00 | 0.00 | 84 | 1018.4 |
| 20260903015408 | 82 | 174 | 0.0 | 0.0 | 0.00 | 0.00 | 0.00 | 84 | 1018.2 |
| 20260903014903 | 82 | 174 | 0.0 | 0.0 | 0.00 | 0.00 | 0.00 | 84 | 1018.2 |
| 20260903014357 | 82 | 174 | 0.0 | 0.0 | 0.00 | 0.00 | 0.00 | 83 | 1018.1 |
| 20260903013852 | 82 | 174 | 0.0 | 0.0 | 0.00 | 0.00 | 0.00 | 83 | 1018.1 |
| 20260903013351 | 83 | 174 | 0.0 | 0.0 | 0.00 | 0.00 | 0.00 | 82 | 1018.0 |
| 20260903012851 | 83 | 175 | 0.0 | 0.0 | 0.00 | 0.00 | 0.00 | 82 | 1017.8 |
| 20260903012345 | 83 | 176 | 0.0 | 0.0 | 0.00 | 0.00 | 0.00 | 82 | 1017.7 |
| 20260903011839 | 83 | 175 | 0.0 | 0.0 | 0.00 | 0.00 | 0.00 | 81 | 1017.9 |
| 20260903011338 | 83 | 229 | 0.0 | 0.0 | 0.00 | 0.00 | 0.00 | 81 | 1017.9 |
| 20260903010834 | 84 | 229 | 0.0 | 0.0 | 0.00 | 0.00 | 0.00 | 81 | 1017.8 |
| 20260903010329 | 84 | 229 | 0.0 | 0.0 | 0.00 | 0.00 | 0.00 | 81 | 1017.4 |
| 20260903005827 | 84 | 229 | 0.0 | 0.0 | 0.00 | 0.00 | 0.00 | 80 | 1017.7 |
| 20260903005323 | 84 | 229 | 0.0 | 0.0 | 0.00 | 0.00 | 0.00 | 79 | 1017.4 |
| 20260903004818 | 85 | 229 | 0.0 | 0.0 | 0.00 | 0.00 | 0.00 | 79 | 1017.5 |
| 20260903004314 | 85 | 229 | 0.0 | 0.0 | 0.00 | 0.00 | 0.00 | 78 | 1017.3 |
| 20260903003809 | 85 | 229 | 0.0 | 0.0 | 0.00 | 0.00 | 0.00 | 78 | 1017.3 |
| 20260903003304 | 85 | 229 | 0.0 | 0.0 | 0.00 | 0.00 | 0.00 | 79 | 1017.3 |
| 20260903002758 | 86 | 228 | 0.0 | 0.0 | 0.00 | 0.00 | 0.00 | 77 | 1017.2 |
| 20260903002258 | 86 | 228 | 0.0 | 0.0 | 0.00 | 0.00 | 0.00 | 76 | 1017.0 |
| 20260903001753 | 86 | 227 | 0.0 | 0.0 | 0.00 | 0.00 | 0.00 | 76 | 1017.2 |
| 20260903001248 | 87 | 227 | 0.0 | 0.0 | 0.00 | 0.00 | 0.00 | 75 | 1017.1 |
| 20260903000743 | 87 | 227 | 0.0 | 0.0 | 0.00 | 0.00 | 0.00 | 75 | 1017.2 |
| 20260903000243 | 87 | 227 | 0.0 | 0.0 | 0.00 | 0.00 | 0.00 | 75 | 1016.9 |
| 20260902235741 | 88 | 227 | 0.0 | 0.0 | 0.00 | 0.00 | 0.00 | 75 | 1017.1 |
| 20260902235237 | 88 | 229 | 0.0 | 0.0 | 0.00 | 0.00 | 0.00 | 74 | 1017.0 |
| 20260902234736 | 89 | 224 | 0.0 | 0.0 | 0.00 | 0.00 | 0.00 | 73 | 1017.0 |
| 20260902234236 | 89 | 221 | 0.0 | 0.0 | 0.00 | 0.00 | 0.00 | 72 | 1016.9 |
| 20260902233736 | 89 | 222 | 0.0 | 0.0 | 0.00 | 0.00 | 0.00 | 72 | 1017.0 |
| 20260902233230 | 89 | 224 | 0.0 | 0.0 | 0.00 | 0.00 | 0.00 | 72 | 1016.9 |
| 20260902232728 | 90 | 229 | 0.0 | 0.0 | 0.00 | 0.00 | 0.00 | 71 | 1016.9 |
| 20260902232223 | 90 | 224 | 0.0 | 0.0 | 0.00 | 0.00 | 0.00 | 71 | 1016.8 |
| 20260902231717 | 90 | 234 | 0.0 | 0.0 | 0.00 | 0.00 | 0.00 | 70 | 1016.9 |
| 20260902231217 | 90 | 226 | 0.0 | 0.0 | 0.00 | 0.00 | 0.00 | 70 | 1016.9 |
| 20260902230713 | 90 | 232 | 0.0 | 0.0 | 0.00 | 0.00 | 0.00 | 69 | 1017.0 |
| 20260902230212 | 91 | 234 | 0.0 | 0.0 | 0.00 | 0.00 | 0.00 | 68 | 1016.6 |
| 20260902225707 | 91 | 234 | 0.0 | 0.0 | 0.00 | 0.00 | 0.00 | 69 | 1016.5 |
| 20260902225207 | 91 | 231 | 0.0 | 0.0 | 0.00 | 0.00 | 0.00 | 67 | 1016.8 |
| 20260902224705 | 91 | 229 | 0.0 | 0.0 | 0.00 | 0.00 | 0.00 | 67 | 1016.6 |
| 20260902224201 | 92 | 232 | 0.0 | 0.0 | 0.00 | 0.00 | 0.00 | 67 | 1016.5 |
| 20260902223657 | 92 | 234 | 0.0 | 0.0 | 0.00 | 0.00 | 0.00 | 65 | 1016.8 |
| 20260902223156 | 92 | 221 | 0.0 | 0.0 | 0.00 | 0.00 | 0.00 | 63 | 1016.4 |
| 20260902222655 | 93 | 232 | 0.0 | 0.0 | 0.00 | 0.00 | 0.00 | 64 | 1016.7 |
| 20260902222154 | 93 | 280 | 0.0 | 0.0 | 0.00 | 0.00 | 0.00 | 61 | 1016.6 |
| 20260902221649 | 94 | 223 | 0.0 | 0.0 | 0.00 | 0.00 | 0.00 | 61 | 1016.9 |
| 20260902221149 | 96 | 227 | 0.0 | 0.0 | 0.00 | 0.00 | 0.00 | 59 | 1016.8 |
| 20260902220644 | 96 | 218 | 0.0 | 0.0 | 0.00 | 0.00 | 0.00 | 57 | 1016.6 |
| 20260902220139 | 96 | 231 | 0.0 | 0.0 | 0.00 | 0.00 | 0.00 | 58 | 1016.7 |
| 20260902215635 | 96 | 224 | 0.0 | 0.0 | 0.00 | 0.00 | 0.00 | 58 | 1016.8 |
| 20260902215131 | 96 | 212 | 0.0 | 0.0 | 0.00 | 0.00 | 0.00 | 57 | 1016.7 |
| 20260902214631 | 95 | 184 | 0.0 | 0.0 | 0.00 | 0.00 | 0.00 | 56 | 1017.0 |
| 20260902214129 | 95 | 219 | 0.0 | 0.0 | 0.00 | 0.00 | 0.00 | 58 | 1016.9 |
| 20260902213626 | 95 | 233 | 0.0 | 0.0 | 0.00 | 0.00 | 0.00 | 59 | 1016.9 |
| 20260902213124 | 95 | 264 | 0.0 | 0.0 | 0.00 | 0.00 | 0.00 | 58 | 1016.7 |
| 20260902212620 | 95 | 237 | 0.0 | 0.0 | 0.00 | 0.00 | 0.00 | 58 | 1016.9 |
| 20260902212116 | 96 | 219 | 0.0 | 0.0 | 0.00 | 0.00 | 0.00 | 57 | 1016.9 |
| 20260902211613 | 97 | 229 | 0.0 | 0.0 | 0.00 | 0.00 | 0.00 | 56 | 1017.2 |
| 20260902211108 | 97 | 261 | 0.0 | 0.0 | 0.00 | 0.00 | 0.00 | 55 | 1016.8 |
| 20260902210607 | 97 | 212 | 0.0 | 0.0 | 0.00 | 0.00 | 0.00 | 57 | 1017.0 |
| 20260902205601 | 97 | 8 | 0.0 | 0.0 | 0.00 | 0.00 | 0.00 | 57 | 1017.2 |
| 20260902205057 | 96 | 235 | 0.0 | 0.0 | 0.00 | 0.00 | 0.00 | 56 | 1017.2 |
| 20260902204556 | 96 | 201 | 0.0 | 0.0 | 0.00 | 0.00 | 0.00 | 59 | 1017.0 |
| 20260902204051 | 95 | 232 | 0.0 | 0.0 | 0.00 | 0.00 | 0.00 | 60 | 1017.0 |
| 20260902203547 | 94 | 220 | 0.0 | 0.0 | 0.00 | 0.00 | 0.00 | 64 | 1017.1 |
| 20260902203045 | 93 | 250 | 0.0 | 0.0 | 0.00 | 0.00 | 0.00 | 66 | 1017.2 |
| 20260902202536 | 94 | 237 | 0.0 | 0.0 | 0.00 | 0.00 | 0.00 | 63 | 1017.3 |
| 20260902202032 | 96 | 242 | 0.0 | 0.0 | 0.00 | 0.00 | 0.00 | 61 | 1017.4 |
| 20260902201528 | 96 | 238 | 0.0 | 0.0 | 0.00 | 0.00 | 0.00 | 56 | 1017.7 |
| 20260902201027 | 97 | 146 | 0.0 | 0.0 | 0.00 | 0.00 | 0.00 | 57 | 1017.5 |
| 20260902200522 | 97 | 237 | 0.0 | 0.0 | 0.00 | 0.00 | 0.00 | 58 | 1017.6 |
| 20260902200018 | 97 | 246 | 0.0 | 0.0 | 0.00 | 0.00 | 0.00 | 60 | 1017.3 |
| 20260902195514 | 97 | 229 | 0.0 | 0.0 | 0.00 | 0.00 | 0.00 | 60 | 1017.6 |
| 20260902195013 | 97 | 255 | 0.0 | 0.0 | 0.00 | 0.00 | 0.00 | 61 | 1017.8 |
| 20260902194507 | 98 | 242 | 0.0 | 0.0 | 0.00 | 0.00 | 0.00 | 58 | 1017.9 |
| 20260902194002 | 98 | 236 | 0.0 | 0.0 | 0.00 | 0.00 | 0.00 | 55 | 1017.8 |
| 20260902193458 | 99 | 225 | 0.0 | 0.0 | 0.00 | 0.00 | 0.00 | 53 | 1017.7 |
| 20260902192956 | 99 | 156 | 0.0 | 0.0 | 0.00 | 0.00 | 0.00 | 52 | 1018.1 |
| 20260902192456 | 100 | 180 | 0.0 | 0.0 | 0.00 | 0.00 | 0.00 | 52 | 1017.9 |
| 20260902191954 | 100 | 243 | 0.0 | 0.0 | 0.00 | 0.00 | 0.00 | 51 | 1017.7 |
| 20260902191450 | 98 | 244 | 0.0 | 0.0 | 0.00 | 0.00 | 0.00 | 53 | 1018.0 |
| 20260902190945 | 95 | 182 | 0.0 | 0.0 | 0.00 | 0.00 | 0.00 | 57 | 1018.1 |
| 20260902190440 | 95 | 330 | 0.0 | 0.0 | 0.00 | 0.00 | 0.00 | 60 | 1018.1 |
| 20260902185936 | 95 | 229 | 0.0 | 0.0 | 0.00 | 0.00 | 0.00 | 61 | 1018.2 |
| 20260902185432 | 96 | 227 | 0.0 | 0.0 | 0.00 | 0.00 | 0.00 | 61 | 1018.0 |
| 20260902184927 | 95 | 254 | 0.0 | 0.0 | 0.00 | 0.00 | 0.00 | 59 | 1018.1 |
| 20260902184422 | 95 | 192 | 0.0 | 0.0 | 0.00 | 0.00 | 0.00 | 58 | 1018.1 |